| time (UTC) | temp F | wind direction | speed MPH | gust MPH | rain 1hr in | rain 24hr in | rain mn in | humidity % | barometer mb |
| 20260504224330 | 49 | 0.0 | 0.0 | 0.00 | 0.00 | 0.00 | 66 | 1015.4 | |
| 20260504223449 | 49 | 0.0 | 0.0 | 0.00 | 0.00 | 0.00 | 65 | 1015.2 | |
| 20260504222528 | 50 | 0.0 | 0.0 | 0.00 | 0.00 | 0.00 | 64 | 1015.2 | |
| 20260504221628 | 50 | 0.0 | 0.0 | 0.00 | 0.00 | 0.00 | 63 | 1015.1 | |
| 20260504220727 | 50 | 0.0 | 0.0 | 0.00 | 0.00 | 0.00 | 62 | 1015.2 | |
| 20260504215847 | 51 | 0.0 | 0.0 | 0.00 | 0.00 | 0.00 | 60 | 1015.2 | |
| 20260504214026 | 51 | 0.0 | 0.0 | 0.00 | 0.00 | 0.00 | 59 | 1015.2 | |
| 20260504213125 | 52 | 0.0 | 1.0 | 0.00 | 0.00 | 0.00 | 58 | 1015.1 | |
| 20260504212226 | 52 | 0.0 | 0.0 | 0.00 | 0.00 | 0.00 | 57 | 1015.1 | |
| 20260504211324 | 52 | 0.0 | 0.0 | 0.00 | 0.00 | 0.00 | 55 | 1015.2 | |
| 20260504210424 | 53 | 0.0 | 0.0 | 0.00 | 0.00 | 0.00 | 54 | 1015.2 | |
| 20260504205522 | 53 | 0.0 | 1.0 | 0.00 | 0.00 | 0.00 | 53 | 1015.2 | |
| 20260504204622 | 54 | 0.0 | 0.0 | 0.00 | 0.00 | 0.00 | 51 | 1015.1 | |
| 20260504203721 | 54 | 0.0 | 0.0 | 0.00 | 0.00 | 0.00 | 50 | 1015.1 | |
| 20260504202820 | 55 | 0.0 | 2.0 | 0.00 | 0.00 | 0.00 | 48 | 1015.2 | |
| 20260504201019 | 55 | 0.0 | 0.0 | 0.00 | 0.00 | 0.00 | 46 | 1015.2 | |
| 20260504200119 | 56 | 0.0 | 1.0 | 0.00 | 0.00 | 0.00 | 45 | 1015.0 | |
| 20260504195218 | 56 | 0.0 | 1.0 | 0.00 | 0.00 | 0.00 | 44 | 1015.1 | |
| 20260504194338 | 56 | 0.0 | 1.0 | 0.00 | 0.00 | 0.00 | 43 | 1015.0 | |
| 20260504193417 | 57 | 0.0 | 0.0 | 0.00 | 0.00 | 0.00 | 41 | 1015.0 | |
| 20260504192516 | 58 | 0.0 | 2.0 | 0.00 | 0.00 | 0.00 | 40 | 1015.1 | |
| 20260504191615 | 58 | 0.0 | 1.0 | 0.00 | 0.00 | 0.00 | 38 | 1015.1 | |
| 20260504190714 | 59 | 0.0 | 0.0 | 0.00 | 0.00 | 0.00 | 37 | 1015.0 | |
| 20260504185855 | 60 | 0.0 | 2.0 | 0.00 | 0.00 | 0.00 | 35 | 1014.9 | |
| 20260504184915 | 60 | 0.0 | 1.0 | 0.00 | 0.00 | 0.00 | 33 | 1014.8 | |
| 20260504183112 | 61 | 0.0 | 1.0 | 0.00 | 0.00 | 0.00 | 32 | 1014.8 | |
| 20260504182211 | 62 | 0.0 | 1.0 | 0.00 | 0.00 | 0.00 | 30 | 1014.7 | |
| 20260504181311 | 63 | 0.0 | 1.0 | 0.00 | 0.00 | 0.00 | 28 | 1014.8 | |
| 20260504180410 | 64 | 0.0 | 1.0 | 0.00 | 0.00 | 0.00 | 25 | 1014.7 | |
| 20260504175510 | 64 | 135 | 1.0 | 2.0 | 0.00 | 0.00 | 0.00 | 23 | 1014.6 |
| 20260504174609 | 65 | 0.0 | 2.0 | 0.00 | 0.00 | 0.00 | 21 | 1014.6 | |
| 20260504173708 | 66 | 0.0 | 1.0 | 0.00 | 0.00 | 0.00 | 19 | 1014.4 | |
| 20260504172807 | 67 | 0.0 | 2.0 | 0.00 | 0.00 | 0.00 | 17 | 1014.3 | |
| 20260504171908 | 69 | 0.0 | 1.0 | 0.00 | 0.00 | 0.00 | 14 | 1014.2 | |
| 20260504170106 | 70 | 0.0 | 1.0 | 0.00 | 0.00 | 0.00 | 11 | 1014.1 | |
| 20260504150358 | 74 | 113 | 1.0 | 3.0 | 0.00 | 0.00 | 0.00 | 1013.9 | |
| 20260504130649 | 79 | 0.0 | 2.0 | 0.00 | 0.00 | 0.00 | 1014.4 | ||
| 20260504081849 | 75 | 0.0 | 2.0 | 0.00 | 0.00 | 0.00 | 11 | 1015.9 | |
| 20260504045043 | 49 | 0.0 | 2.0 | 0.00 | 0.00 | 0.00 | 66 | 1015.8 | |
| 20260504044143 | 48 | 0.0 | 2.0 | 0.00 | 0.00 | 0.00 | 67 | 1016.0 | |
| 20260504043242 | 47 | 0.0 | 2.0 | 0.00 | 0.00 | 0.00 | 70 | 1016.0 | |
| 20260504042341 | 46 | 0.0 | 2.0 | 0.00 | 0.00 | 0.00 | 72 | 1015.9 | |
| 20260504041441 | 45 | 0.0 | 2.0 | 0.00 | 0.00 | 0.00 | 73 | 1015.8 | |
| 20260504040620 | 44 | 0.0 | 1.0 | 0.00 | 0.00 | 0.00 | 74 | 1015.9 | |
| 20260504035639 | 44 | 0.0 | 1.0 | 0.00 | 0.00 | 0.00 | 75 | 1016.0 | |
| 20260504034740 | 43 | 0.0 | 1.0 | 0.00 | 0.00 | 0.00 | 75 | 1016.0 | |
| 20260504033838 | 43 | 0.0 | 1.0 | 0.00 | 0.00 | 0.00 | 77 | 1015.8 | |
| 20260504032037 | 42 | 0.0 | 2.0 | 0.00 | 0.00 | 0.00 | 76 | 1015.9 | |
| 20260504031136 | 41 | 0.0 | 0.0 | 0.00 | 0.00 | 0.00 | 76 | 1016.0 | |
| 20260504030235 | 41 | 0.0 | 0.0 | 0.00 | 0.00 | 0.00 | 75 | 1015.8 | |
| 20260504025335 | 41 | 0.0 | 0.0 | 0.00 | 0.00 | 0.00 | 75 | 1015.9 | |
| 20260504024434 | 40 | 0.0 | 1.0 | 0.00 | 0.00 | 0.00 | 74 | 1015.9 | |
| 20260504023534 | 41 | 0.0 | 0.0 | 0.00 | 0.00 | 0.00 | 74 | 1015.8 | |
| 20260504022653 | 41 | 0.0 | 0.0 | 0.00 | 0.00 | 0.00 | 74 | 1015.8 | |
| 20260504021732 | 41 | 0.0 | 0.0 | 0.00 | 0.00 | 0.00 | 73 | 1015.8 | |
| 20260504020831 | 41 | 0.0 | 0.0 | 0.00 | 0.00 | 0.00 | 72 | 1016.0 | |
| 20260504015031 | 42 | 0.0 | 0.0 | 0.00 | 0.00 | 0.00 | 71 | 1016.2 | |
| 20260504014131 | 42 | 0.0 | 0.0 | 0.00 | 0.00 | 0.00 | 71 | 1016.3 | |
| 20260504013229 | 42 | 0.0 | 0.0 | 0.00 | 0.00 | 0.00 | 70 | 1016.3 | |
| 20260504012329 | 42 | 0.0 | 0.0 | 0.00 | 0.00 | 0.00 | 69 | 1016.4 | |
| 20260504011428 | 42 | 0.0 | 1.0 | 0.00 | 0.00 | 0.00 | 68 | 1016.5 | |
| 20260504010527 | 43 | 0.0 | 0.0 | 0.00 | 0.00 | 0.00 | 67 | 1016.5 | |
| 20260504005647 | 43 | 0.0 | 0.0 | 0.00 | 0.00 | 0.00 | 66 | 1016.5 | |
| 20260504004726 | 44 | 0.0 | 0.0 | 0.00 | 0.00 | 0.00 | 66 | 1016.5 | |
| 20260504003825 | 44 | 0.0 | 1.0 | 0.00 | 0.00 | 0.00 | 64 | 1016.4 | |
| 20260504002045 | 45 | 0.0 | 1.0 | 0.00 | 0.00 | 0.00 | 63 | 1016.5 | |
| 20260504001124 | 45 | 0.0 | 1.0 | 0.00 | 0.00 | 0.00 | 63 | 1016.3 | |
| 20260504000223 | 46 | 158 | 1.0 | 2.0 | 0.00 | 0.00 | 0.00 | 63 | 1016.5 |
| 20260503235322 | 46 | 0.0 | 1.0 | 0.00 | 0.00 | 0.00 | 64 | 1016.4 | |
| 20260503234422 | 46 | 0.0 | 1.0 | 0.00 | 0.00 | 0.00 | 63 | 1016.4 | |
| 20260503233541 | 45 | 0.0 | 1.0 | 0.00 | 0.00 | 0.00 | 63 | 1016.4 | |
| 20260503232620 | 45 | 0.0 | 1.0 | 0.00 | 0.00 | 0.00 | 63 | 1016.6 | |
| 20260503231720 | 46 | 0.0 | 1.0 | 0.00 | 0.00 | 0.00 | 62 | 1016.6 | |
| 20260503230819 | 46 | 0.0 | 2.0 | 0.00 | 0.00 | 0.00 | 61 | 1016.5 | |
| 20260503225018 | 46 | 0.0 | 0.0 | 0.00 | 0.00 | 0.00 | 60 | 1016.6 |